STARLINK-1122 (44949 NORAD) Tracking and Keplerian Element Data

This shows tracking and keplerian element data for the satellite.

Feedback or suggestion? Click here.




ElementValue
Catalog44949
NameSTARLINK-1122
Epoch Orbit728
Epoch Day53.25001157
Epoch Year2020
RAAN167.2493
Inclination52.9959
Eccentricity0.0001459
Argument of Perigee17.5185
Mean Anonmoly87.1427
Mean Motion15.73164602
Decay Rate0.00306437
L11 44949U 20001AM 20053.25001157 .00306437 00000-0 21118-2 0 9992
L22 44949 52.9959 167.2493 0001459 17.5185 87.1427 15.73164602 7280

Live tracking and technical data element details for STARLINK-1122 (NORAD 44949). STARLINK-1122 can be tracked NOW for your location showing map with azimuth and elevation plus other details from your city location.

Track the satellite on the map from your city or location and see movement details for azimuth, elevation, latitude, longitude, range, height, and movement on the map or in text.







IsCatalogInMostPopularTable: catalog: 44949, numindb: 16
Update: records affected: 1



GetName: 44949 STARLINK-1122

Hit Count: updated at: Mon, 24 Feb 2020 17:00:54 GMT